This is the latest recevied weather packets stored in our database for station/object K6HN. If no packets are shown the sender has not sent any weather packets the latest 10 day(s).
| Time | Temp. | Humidity | Pressure | Rain* | Wind** | Luminosity | Snow |
|---|---|---|---|---|---|---|---|
| 1777958879 | 10.56° C | 49% | 1000.7 hPa | 0 mm | - | - | - |
| 1777957979 | 11.11° C | 48% | 1001 hPa | 0 mm | - | - | - |
| 1777957079 | 11.11° C | 49% | 1001.4 hPa | 0 mm | - | - | - |
| 1777956179 | 11.11° C | 49% | 1001.4 hPa | 0 mm | - | - | - |
| 1777955279 | 11.11° C | 49% | 1001.4 hPa | 0 mm | - | - | - |
| 1777954379 | 11.67° C | 49% | 1001 hPa | 0 mm | - | - | - |
| 1777953479 | 11.67° C | 50% | 1000.3 hPa | 0 mm | - | - | - |
| 1777952579 | 11.67° C | 51% | 1000.3 hPa | 0 mm | - | - | - |
| 1777951679 | 11.67° C | 51% | 1000.3 hPa | 0 mm | - | - | - |
| 1777950779 | 11.67° C | 51% | 1000 hPa | 0 mm | - | - | - |
| 1777949879 | 12.22° C | 51% | 1000.3 hPa | 0 mm | - | - | - |
| 1777948979 | 12.78° C | 51% | 1000.3 hPa | 0 mm | - | - | - |
| 1777948079 | 12.78° C | 51% | 1000 hPa | 0 mm | - | - | - |
| 1777947179 | 12.78° C | 50% | 1000 hPa | 0 mm | - | - | - |
| 1777946279 | 12.78° C | 50% | 1000.3 hPa | 0 mm | - | - | - |
| 1777945379 | 13.33° C | 50% | 1000.7 hPa | 0 mm | - | - | - |
| 1777944479 | 13.33° C | 50% | 1000.3 hPa | 0 mm | - | - | - |
| 1777943579 | 13.33° C | 50% | 1000.7 hPa | 0 mm | - | - | - |
| 1777942679 | 13.89° C | 49% | 1000.7 hPa | 0 mm | - | - | - |
| 1777941779 | 14.44° C | 49% | 1000.7 hPa | 0 mm | - | - | - |
| 1777940879 | 13.89° C | 49% | 1000.7 hPa | 0 mm | - | - | - |
| 1777939979 | 14.44° C | 48% | 1000.7 hPa | 0 mm | - | - | - |
| 1777939079 | 14.44° C | 49% | 1000.7 hPa | 0 mm | - | - | - |
| 1777938179 | 14.44° C | 49% | 1000.7 hPa | 0 mm | - | - | - |
| 1777937279 | 14.44° C | 48% | 1000.7 hPa | 0 mm | - | - | - |
* Rain latest hour (hover to see other rain measurements)
** Current wind speed in m/s (hover to see current wind gust speed)